カタログに戻る

SL-16 R/B

運用中LEO
NORAD 23405·ROCKET BODY·🇷🇺 Russia

打ち上げ Nov 24, 1994 から Baikonur Cosmodrome

Loading…

次のパス (今後24時間)

TLE

最新Source: Space-Track

元期: Sep 14, 2026, 20:43 UTC

1 23405U 94077B   26257.86343382 -.00000164  00000-0 -59081-4 0  9990
2 23405  70.9833 314.4969 0004763 253.4436 106.6164 14.15579917643005

AllMySatでSL-16 R/Bをリアルタイム追跡

Download on the App Store